Location: Fluertsh�userhof
(48.7537°N, 10.3850°E)
Time: 08:57:37
(UTC+00:00)

Cosmos 1437 - Pass Details

Date: 18 September 2020
Orbit: 366 x 369 km, 81.2° (Epoch: 24 October)

Event Time Altitude Azimuth Distance (km) Brightness Sun altitude
Rises 18:02:19 0° 350° (N) 2,263 6.8 -7.1°
Reaches altitude 10° 18:04:20 10° 352° (N) 1,405 5.7 -7.4°
Maximum altitude 18:07:22 73° 77° (ENE) 403 2.5 -7.9°
Drops below altitude 10° 18:10:23 10° 163° (SSE) 1,392 5.1 -8.4°
Enters shadow 18:14:05 -6° 167° (SSE) 2,973 6.8 -9.0°
